Montgomery, NY

5:46 PM EDT on October 18, 2019 (GMT -0400)
Orange County

Weather History for KMGJ - July, 2019

Change the Weather History Date:

Thursday, July 25, 2019

  Actual Average (KSWF) Record (KSWF)
Temperature  
Mean Temperature 68 °F -  
Max Temperature 82 °F 80 °F 95 °F (2001)
Min Temperature 55 °F 60 °F 49 °F (1976)
Cooling Degree Days 4    
Growing Degree Days 18 (Base 50)    
Moisture  
Dew Point 59 °F    
Average Humidity 73    
Maximum Humidity 100    
Minimum Humidity 38    
Precipitation  
Precipitation 0.00 in - - ()
Sea Level Pressure  
Sea Level Pressure 30.11 in    
Wind  
Wind Speed 1 mph (NNE)    
Max Wind Speed 8 mph    
Max Gust Speed -    
Visibility 10 miles    
Events      
Averages and records for this station are not official NWS values.
T = Trace of Precipitation, MM = Missing Value Source: NWS Daily Summary

Daily Weather History Graph

Daily Weather History Graph

Search for Another Location

Airport or City:

Astronomy

Jul. 25, 2019 Rise Set
Actual Time 5:44 AM EDT 8:21 PM EDT
Civil Twilight 5:12 AM EDT 8:53 PM EDT
Nautical Twilight 4:32 AM EDT 9:33 PM EDT
Astronomical Twilight 3:47 AM EDT 10:18 PM EDT
Moon 12:30 AM EDT (7/25) 1:58 PM EDT (7/25)
Length of Visible Light 15h 40m
Length of Day
14h 36m
Last Quarter, 44% of the Moon is Illuminated
Jul 25
Last Quarter
Jul 31
New
Aug 7
First Quarter
Aug 15
Full
Aug 23
Last Quarter

Hourly Weather History & Observations

Time (EDT) Temp. Heat Index Dew Point Humidity Pressure Visibility Wind Dir Wind Speed Gust Speed Precip Events Conditions
12:54 AM 60.1 °F - 60.1 °F 100% 30.04 in 10.0 mi Calm Calm - N/A   Clear
1:54 AM 59.0 °F - 59.0 °F 100% 30.04 in 10.0 mi Calm Calm - 0.00 in   Clear
2:54 AM 57.9 °F - 57.0 °F 97% 30.04 in 10.0 mi Calm Calm - N/A   Clear
3:54 AM 57.9 °F - 57.0 °F 97% 30.05 in 10.0 mi Calm Calm - N/A   Clear
4:54 AM 57.0 °F - 55.9 °F 96% 30.06 in 10.0 mi Calm Calm - N/A   Clear
5:54 AM 55.0 °F - 55.0 °F 100% 30.08 in 10.0 mi Calm Calm - N/A   Clear
6:54 AM 59.0 °F - 57.9 °F 96% 30.10 in 10.0 mi Calm Calm - N/A   Clear
7:54 AM 63.0 °F - 60.1 °F 90% 30.12 in 10.0 mi Calm Calm - N/A   Clear
8:54 AM 69.1 °F - 61.0 °F 75% 30.13 in 10.0 mi Calm Calm - N/A   Clear
9:54 AM 72.0 °F - 60.1 °F 66% 30.13 in 10.0 mi Calm Calm - N/A   Clear
10:54 AM 75.9 °F - 59.0 °F 56% 30.13 in 10.0 mi Calm Calm - N/A   Clear
11:54 AM 77.0 °F - 57.9 °F 52% 30.12 in 10.0 mi NE 6.9 mph - N/A   Clear
12:54 PM 79.0 °F - 55.9 °F 45% 30.12 in 10.0 mi ENE 5.8 mph - N/A   Clear
1:54 PM 79.0 °F - 54.0 °F 42% 30.11 in 10.0 mi Calm Calm - N/A   Clear
2:54 PM 82.0 °F 81.4 °F 55.0 °F 39% 30.11 in 10.0 mi NE 4.6 mph - N/A   Clear
3:54 PM 81.0 °F 80.5 °F 54.0 °F 39% 30.10 in 10.0 mi SSW 5.8 mph - N/A   Partly Cloudy
4:54 PM 82.0 °F 81.4 °F 55.0 °F 39% 30.09 in 10.0 mi North 8.1 mph - N/A   Clear
5:54 PM 82.0 °F 81.3 °F 54.0 °F 38% 30.10 in 10.0 mi NW 5.8 mph - N/A   Clear
6:54 PM 75.0 °F - 61.0 °F 62% 30.12 in 10.0 mi Calm Calm - N/A   Overcast
7:54 PM 73.0 °F - 66.0 °F 79% 30.14 in 10.0 mi Calm Calm - N/A   Overcast
8:54 PM 71.1 °F - 64.0 °F 78% 30.15 in 10.0 mi Calm Calm - N/A   Overcast
9:54 PM 68.0 °F - 63.0 °F 84% 30.16 in 10.0 mi Calm Calm - N/A   Mostly Cloudy
10:54 PM 66.9 °F - 62.1 °F 84% 30.17 in 10.0 mi Calm Calm - N/A   Clear
11:54 PM 62.1 °F - 61.0 °F 96% 30.18 in 10.0 mi Calm Calm - N/A   Clear